Find Starlink 33866

NORAD ID: 63653 Int'l Des: 2025-083 Owner: SPXS Country: US Constellation: starlink operational
LEOCIRCULAR

Current View

Loading 3D Globe...

About Starlink 33866

Starlink 33866 (NORAD 63653) is a starlink constellation satellite (v2 mini) launched Apr 25, 2025 by SPXS of US. It operates in LEO, CIRCULAR orbit with a mass of 575.00 kg.

About Starlink 33866

Description loading...

Upcoming Passes

Passes for default location (London). Set your location on the main map for personalized predictions.

Altitude History

Loading altitude history...

Two-Line Element Set

1 63653U 25083V 26169.37972517 .00011567 00000-0 42891-3 0 9993
2 63653 43.0024 156.7732 0001602 287.7562 72.3115 15.27602397 65490
Epoch: Jun 18, 2026 • Age: 23 hours

Current Status

Altitude 482.7 km
Velocity 7.63 km/s
Sub-Earth Point 14.06°N, 68.25°W
Launch Date Apr 25, 2025
Age 1.1 years
Type internet

Technical Details

Classification Payload
Mass 575.00 kg
Dry Mass 530.00 kg
Total Mass 575.00 kg
Length 0.30 m
Diameter 4.10 m
Span 29.00 m
Shape Box + pan
Manufacturer SPXS
Bus Type Starlink V2MO
Phase Status In Orbit
Owner/State SPXS/US

Most Searched